Regional Weather Roundup
Issued by NWS

Home | Current Version | Previous Version | Graphics & Text | Print | Product List | Glossary On
Versions: 1 2 3 4 5 6 7 8 9 10 11 12 13 14 15 16 17 18 19 20 21 22 23 24 25 26 27 28 29 30 31 32 33 34 35 36 37 38 39 40 41 42 43 44 45 46 47 48 49 50
000
ASUS45 KSLC 021210
RWRUT

UTAH REGIONAL WEATHER ROUNDUP
NATIONAL WEATHER SERVICE SALT LAKE CITY UT
600 AM MDT THU JUL 02 2015

UTZ001>011-023>025-021300-

NORTHERN UTAH

CITY           SKY/WX    TMP DP  RH WIND       PRES   REMARKS
HILL AFB       PTCLDY    70  48  45 E17       30.08R
LOGAN          CLEAR     57  50  77 CALM      30.07R
OGDEN          PTCLDY    71  48  43 S9        30.05R
PROVO AIRPORT  MOCLDY    66  48  52 CALM      30.08R
SALT LAKE CITY MOCLDY    77  50  38 E5        30.03R
VERNAL         MOCLDY    67  47  48 W7        30.10R
WENDOVER       CLEAR     82  46  28 NW9       30.06R
WEST JORDAN    PTCLDY    73  46  38 SW5       30.07R

$$

UTZ012>022-026-027-021300-

SOUTHERN/CENTRAL UTAH

CITY           SKY/WX    TMP DP  RH WIND       PRES   REMARKS
BRYCE CANYON   LGT RAIN  58  51  78 NW16      30.33F
CEDAR CITY     MOCLDY    71  50  47 SE9       30.19R
MILFORD        MOCLDY    70  51  51 SW9       30.12S
MOAB/CYNLANDS  CLEAR     79  52  38 SE8       30.01R
PRICE          PTCLDY    68  39  34 N8        30.14R
ST GEORGE      PTSUNNY   82  57  42 S7        30.00S
KANAB          CLOUDY    66  63  88 CALM      30.19S

$$

REGIONAL REPORTS     COLORADO/ARIZONA

CITY           SKY/WX    TMP DP  RH WIND       PRES   REMARKS
CRAIG, CO      MOCLDY    51  46  83 CALM      30.21R
GRAND JUNCTION CLOUDY    74  50  42 E10       30.05R
RIFLE          CLOUDY    65  49  56 CALM      30.14R
MONTROSE       CLOUDY    73  50  44 E7        30.18R
CORTEZ         PTCLDY    68  55  63 E12       30.22S
PAGE, AZ       CLOUDY    79  54  41 S7        30.08R
GRAND CANYON     N/A    N/A N/A N/A MISG      30.29R
KINGMAN        CLOUDY    72  66  81 SW3       30.06S
FLAGSTAFF      MOCLDY    56  55  97 CALM      30.31R

$$

REGIONAL REPORTS    NEVADA/IDAHO/WYOMING

CITY           SKY/WX    TMP DP  RH WIND       PRES   REMARKS
LAS VEGAS, NV  CLOUDY    81  68  64 S12       29.92R
ELY            CLOUDY    62  54  74 S7        30.25S
ELKO           MOCLDY    67  51  56 N6        30.18R
POCATELLO, ID  CLEAR     60  52  74 S9        30.09R
BURLEY         CLEAR     59  51  75 CALM      30.05S
EVANSTON, WY   MOCLDY    61  41  47 S5        30.28F
ROCK SPRINGS   PTCLDY    59  49  69 S3        30.27R

$$


USA.gov is the U.S. government's official web portal to all federal, state and local government web resources and services.